User: anonymous   Login
Location: Unspecified
(0.0000°N, 0.0000°E)
Time: 19:02:58
(UTC+00:00)
Language:

Feng Yun - Orbit

View from above orbital plane
View from above orbital plane
View from above satellite
View from above satellite

Ground track
Ground track

The orbit data is extracted from the following two-line orbital elements,

1 24834U 97029A   17084.56969417 -.00000151 +00000-0 +00000-0 0  9993
2 24834 013.6159 031.6849 0099704 156.6210 019.0333 00.96051852071024
Epoch (UTC): 25 March 2017 13:40:21
Eccentricity: 0.0099704
inclination: 13.6159°
perigee height: 36579 km
apogee height: 37445 km
right ascension of ascending node: 31.6849°
argument of perigee: 156.6210°
revolutions per day: 0.96051852
mean anomaly at epoch: 19.0333°
orbit number at epoch: 7102

The dashed part of the orbit path shows where the satellite is in the earth's shadow,  

DLR